STARLINK-32842, 62822

Orbit data source: Space-Track

STARLINK-32842, 62822 is a payload satellite owned by SpaceX/Seattle (US) in LEO that was launched on Fri, 24 Jan 2025 UTC via an FALCON 9 launch vehicle from the Air Force Western Test Range (AFWTR). Payloads include a variety of satellites, spacecraft, and rockets equipped with specific instruments for various scientific and technological missions. These include communications satellites like Starlink; space stations such as the ISS; scientific satellites like the Hubble; Earth observation satellites from companies like Planet Labs, Umbra, and HawkEye 360; GPS; miniature CubeSats for education and research; and military/defense satellites.

Loading next visibility...
STARLINK-32842 details
Identifier
62822, 2025-018S
Orbit
LEO
Last TLE update9 hours ago
Origin
Flag of USSpaceX/Seattle (US)
ManufacturerSpaceX/Seattle
MissionOperational spacecraft
Bus & MotorSTARLINK V2M, Unknown motor
Mass730 kg wet, ~700 kg dry
Launch date (UTC)
2025-01-24 (3 weeks ago)
Launch vehicle
FALCON 9
Launch site
Air Force Western Test Range (AFWTR)
Object type
Payload
Rocket body
Debris
Shape & HBRUnknown
Radar Cross SectionLarge (>1 m²)

Expand to show TLE details & history

TLE from 9 hours ago
0 STARLINK-32842
1 62822U 25018S   25047.16668981 -.01597383  00000-0 -25351-1 0  9994
2 62822  53.1589 312.4919 0000718  85.3897 281.1513 15.55653501  4807
Epoch: 2025-02-16T04:00Z
Definitive object data (Epoch: 2025-02-16T04:00:01.999Z)
Latitude5.1758°
Longitude109.94952°
Altitude400.545 km
Speed7.672 km/s
True Right ascension21h 05m 26s
True Declination5° 08' 36"
Sunlit
Object was in daylight at TLE epoch
Visualization TLE readout
Latitude-47.08372°
Longitude51.027°
Altitude420.586 km
Speed7.658 km/s
Apparent Right ascension22h 59m 15s
Apparent Declination-78° 41' 25"
Sunlit
Object is in daylight
Visualization observer readout
Local Sidereal Time15:43:20
Azimuth165.384° S
Elevation-42.697°
Doppler factor1
Orbital elements
Apogee altitude401 km
Perigee altitude400.026 km
Semi-major axis6,778.65 km
Eccentricity0.0000718
Inclination53.1589°
RAAN312.4919°
Arg. of periapsis85.3897°
True anomaly281.14323°
Mean anomaly281.1513°
Eccentric anomaly281.14726°
Mean motion3.88891 °/min
BSTAR-0.025351
Orbital period92.57 mins
Loading maneuver chart data...
Loading historical data...
Loading historical data...
Loading historical data...
Loading historical data...
Loading historical data...
Loading historical data...
Loading historical data...

STARLINK-32842 Visibility forecast

Observer location: undefined°, undefined

Span
Click to sort rows by Start time (UTC) header in descending order
Start Az.
Max El. time (UTC)
Max El. Az.
Max El.
End time (UTC)
End Az.
5 mins2025-02-16 19:33:44.247Z186.908° SSW2025-02-16 19:35:44.247Z145.133° SSE23.289°2025-02-16 19:38:44.247Z74.54° E
4 mins2025-02-16 21:10:44.247Z277.614° WNW2025-02-16 21:12:44.247Z338.881° N26.632°2025-02-16 21:14:44.247Z26.321° NE
4 mins2025-02-17 03:39:44.247Z280.716° WNW2025-02-17 03:41:44.247Z208.972° SW30.298°2025-02-17 03:43:44.247Z162.352° S
|